Find Xingwang Jishu Shiyan W.

NORAD ID: 65617 Int'l Des: 2025-209 Owner: ZXW Country: CN Constellation: xingwang operational
LEOCIRCULAR

Live Position

Loading 3D Globe...

About Xingwang Jishu Shiyan W.

Description loading...

Upcoming Passes

Passes for default location (London). Set your location on the main map for personalized predictions.

Altitude History

Loading altitude history...

Two-Line Element Set

1 65617U 25209A 26105.64742373 -.00000108 00000-0 36199-4 0 9995
2 65617 49.9984 228.4268 0000765 173.8435 186.2452 13.41456855 29271
Epoch: Apr 15, 2026 • Age: 29 hours

Current Status

Altitude 1107.6 km
Velocity 7.30 km/s
Sub-Earth Point 40.48°N, 117.98°E
Launch Date Sep 16, 2025
Age 0.5 years
Type internet

Technical Details

Classification Payload
Mass 300.00 kg
Dry Mass 300.00 kg
Total Mass 300.00 kg
Length 2.50 m
Diameter 0.80 m
Span 2.50 m
Shape Box + 2 Pan
Manufacturer ZHSW
Phase Status In Orbit
Owner/State ZXW/CN

Most Searched